This is the latest recevied weather packets stored in our database for station/object KB9MLJ. If no packets are shown the sender has not sent any weather packets the latest 10 day(s).
| Time | Temp. | Humidity | Pressure | Rain* | Wind** | Luminosity | Snow |
|---|---|---|---|---|---|---|---|
| 1777513998 | 6.67° C | 91% | 1016.4 hPa | 0 mm | - | 0 W/m² | - |
| 1777513696 | 6.67° C | 91% | 1016.4 hPa | 0 mm | - | 0 W/m² | - |
| 1777513392 | 7.22° C | 91% | 1016.4 hPa | 0 mm | - | 0 W/m² | - |
| 1777513089 | 7.22° C | 91% | 1016.1 hPa | 0 mm | - | 0 W/m² | - |
| 1777512784 | 7.22° C | 91% | 1016.4 hPa | 0 mm | - | 0 W/m² | - |
| 1777512481 | 7.22° C | 91% | 1016.1 hPa | 0 mm | - | 0 W/m² | - |
| 1777512178 | 7.22° C | 90% | 1015.7 hPa | 0 mm | - | 0 W/m² | - |
| 1777511875 | 7.78° C | 90% | 1016.1 hPa | 0 mm | - | 0 W/m² | - |
| 1777511573 | 7.78° C | 90% | 1015.7 hPa | 0 mm | - | 0 W/m² | - |
| 1777511270 | 7.78° C | 90% | 1015.7 hPa | 0 mm | - | 0 W/m² | - |
| 1777510966 | 7.78° C | 90% | 1015.7 hPa | 0 mm | - | 0 W/m² | - |
| 1777510663 | 7.78° C | 90% | 1015.7 hPa | 0 mm | - | 0 W/m² | - |
| 1777510359 | 7.78° C | 90% | 1015.4 hPa | 0 mm | - | 0 W/m² | - |
| 1777510055 | 8.33° C | 89% | 1015.4 hPa | 0 mm | - | 0 W/m² | - |
| 1777509751 | 8.33° C | 89% | 1015.4 hPa | 0 mm | - | 2 W/m² | - |
| 1777509447 | 8.33° C | 89% | 1015.4 hPa | 0 mm | - | 4 W/m² | - |
| 1777509145 | 8.33° C | 88% | 1015.4 hPa | 0 mm | - | 8 W/m² | - |
| 1777508842 | 8.33° C | 88% | 1015.4 hPa | 0 mm | - | 10 W/m² | - |
| 1777508539 | 8.33° C | 87% | 1015.4 hPa | 0 mm | - | 11 W/m² | - |
| 1777508236 | 8.89° C | 87% | 1015.4 hPa | 0 mm | - | 13 W/m² | - |
| 1777507934 | 8.89° C | 86% | 1015.4 hPa | 0 mm | - | 17 W/m² | - |
| 1777507630 | 9.44° C | 86% | 1015 hPa | 0 mm | - | 18 W/m² | - |
| 1777507327 | 9.44° C | 85% | 1014.7 hPa | 0 mm | - | 22 W/m² | - |
| 1777507024 | 9.44° C | 85% | 1014.7 hPa | 0 mm | - | 29 W/m² | - |
| 1777506721 | 9.44° C | 85% | 1014.7 hPa | 0 mm | - | 23 W/m² | - |
* Rain latest hour (hover to see other rain measurements)
** Current wind speed in m/s (hover to see current wind gust speed)